User: anonymous   Login
Location: Poughquag
(41.6090°N, 73.6820°W)
Time: 20:04:43
(UTC-04:00)
Language:

BlueWalker 3 - Orbit

View from above orbital plane
View from above orbital plane
View from above satellite
View from above satellite

Ground track
Ground track

The orbit data is extracted from the following two-line orbital elements,

1 53807U 22111AL  25119.18838405  .00007727  00000-0  25449-3 0  9995
2 53807  53.2313 169.0693 0007553 350.6947   9.3914 15.32449796146603
Epoch (UTC): 29 April 2025 04:31:16
Eccentricity: 0.0007553
inclination: 53.2313°
perigee height: 463 km
apogee height: 473 km
right ascension of ascending node: 169.0693°
argument of perigee: 350.6947°
revolutions per day: 15.32449796
mean anomaly at epoch: 9.3914°
orbit number at epoch: 14660

The dashed part of the orbit path shows where the satellite is in the earth's shadow,  

DLR